This is the latest recevied weather packets stored in our database for station/object HB9CEY-10. If no packets are shown the sender has not sent any weather packets the latest 1 day(s).
| Time | Temp. | Humidity | Pressure | Rain* | Wind** | Luminosity | Snow |
|---|---|---|---|---|---|---|---|
| 1777780738 | 11.67° C | 45% | 1017.6 hPa | - | - | - | - |
| 1777779838 | 11.67° C | 45% | 1017.7 hPa | - | - | - | - |
| 1777778938 | 11.67° C | 45% | 1017.5 hPa | - | - | - | - |
| 1777778038 | 12.22° C | 45% | 1017.5 hPa | - | - | - | - |
| 1777777138 | 12.22° C | 45% | 1017.8 hPa | - | - | - | - |
| 1777776238 | 12.22° C | 45% | 1017.5 hPa | - | - | - | - |
| 1777775338 | 12.78° C | 45% | 1017.5 hPa | - | - | - | - |
| 1777774438 | 12.22° C | 45% | 1017.8 hPa | - | - | - | - |
| 1777773538 | 12.78° C | 45% | 1018 hPa | - | - | - | - |
| 1777772637 | 12.78° C | 45% | 1018.2 hPa | - | - | - | - |
| 1777771737 | 12.78° C | 45% | 1018.3 hPa | - | - | - | - |
| 1777770837 | 12.78° C | 45% | 1018.4 hPa | - | - | - | - |
| 1777769937 | 13.33° C | 45% | 1018.4 hPa | - | - | - | - |
| 1777769037 | 13.33° C | 45% | 1018.4 hPa | - | - | - | - |
| 1777768137 | 13.33° C | 45% | 1018.5 hPa | - | - | - | - |
| 1777767237 | 13.33° C | 45% | 1018.7 hPa | - | - | - | - |
| 1777766337 | 13.89° C | 45% | 1018.7 hPa | - | - | - | - |
| 1777765437 | 13.89° C | 45% | 1018.7 hPa | - | - | - | - |
| 1777764537 | 13.89° C | 45% | 1018.8 hPa | - | - | - | - |
| 1777763637 | 14.44° C | 45% | 1018.9 hPa | - | - | - | - |
| 1777762737 | 14.44° C | 45% | 1018.9 hPa | - | - | - | - |
| 1777761837 | 14.44° C | 45% | 1018.9 hPa | - | - | - | - |
| 1777760937 | 15.56° C | 43% | 1018.9 hPa | - | - | - | - |
| 1777760037 | 15° C | 44% | 1018.9 hPa | - | - | - | - |
| 1777759136 | 15° C | 43% | 1019 hPa | - | - | - | - |
* Rain since midnight (hover to see other rain measurements)
** Current wind speed in m/s (hover to see current wind gust speed)